[Date Prev][Date Next][Thread Prev][Thread Next] - [Date Index][Thread Index][Author Index]
2 Line ISS Keps 5-24
- Subject: [sarex] 2 Line ISS Keps 5-24
- From: "Dave Larsen PhD" <doc@xxxxxxxxxxx>
- Date: Sat, 24 May 2003 02:29:35 -0700
ISS
1 25544U 98067A 03144.14474016 .00011376 00000-0 14697-3 0 404
2 25544 51.6307 141.0554 0005861 146.2668 336.3168 15.59460090257257
----
Via the sarex mailing list at AMSAT.ORG courtesy of AMSAT-NA.
To unsubscribe, send "unsubscribe sarex" to Majordomo@amsat.org
AMSAT Home